Regional Weather Roundup
Issued by NWS Raleigh/Durham, NC

Home | Current Version | Previous Version | Text Only | Print | Product List | Glossary On
Versions: 1 2 3 4 5 6 7 8 9 10 11 12 13 14 15 16 17 18 19 20 21 22 23 24 25 26 27 28
000
ASUS42 KRAH 261910
RWRRAH
NORTH CAROLINA WEATHER ROUNDUP
NATIONAL WEATHER SERVICE RALEIGH NC
300 PM EDT FRI MAY 26 2017

NOTE: "FAIR" INDICATES FEW OR NO CLOUDS BELOW 12,000 FEET WITH NO
SIGNIFICANT WEATHER AND/OR OBSTRUCTIONS TO VISIBILITY.

NCZ001-053-055-056-065-067-262000-
WESTERN NORTH CAROLINA

CITY           SKY/WX    TMP DP  RH WIND       PRES   REMARKS
ASHEVILLE      SUNNY     75  47  36 N12       30.03S
JEFFERSON      SUNNY     66  47  48 NW10G22   30.03S
MORGANTON      SUNNY     81  51  35 SW5       30.00F
HICKORY        SUNNY     78  52  40 SW14      29.96S
RUTHERFORDTON  SUNNY     80  46  30 W10G20    29.98S
MOUNT AIRY     SUNNY     79  50  36 W7G16     29.95F
BOONE          SUNNY     68  45  42 W18G28    30.05S
$$

NCZ021-022-025-041-071-084-088-262000-
CENTRAL NORTH CAROLINA

CITY           SKY/WX    TMP DP  RH WIND       PRES   REMARKS
CHARLOTTE      MOSUNNY   79  54  41 SW8       29.96F
GREENSBORO     PTSUNNY   78  55  44 W15       29.92F
WINSTON-SALEM  SUNNY     78  48  34 W8G17     29.94F
RALEIGH-DURHAM MOSUNNY   80  56  43 W15G21    29.91F
FORT BRAGG     SUNNY     83  52  34 NW12      29.90F
FAYETTEVILLE   SUNNY     85  50  29 W8G20     29.90F
BURLINGTON     PTSUNNY   80  56  43 W13       29.91F
LAURINBURG     SUNNY     83  54  36 W14       29.93F
$$

NCZ011-015-027-028-043-044-047-080-103-262000-
NORTHEASTERN NORTH CAROLINA

CITY           SKY/WX    TMP DP  RH WIND       PRES   REMARKS
ROCKY MT-WILSO MOSUNNY   79  56  45 W9        29.88F
GREENVILLE     MOSUNNY   81  55  41 NW10G17   29.90S
WASHINGTON     MOSUNNY   78  56  47 W10G16    29.88S
ELIZABETH CITY PTSUNNY   81  60  48 W16G24    29.83S
MANTEO         SUNNY     78  55  44 NW12G21   29.85R
CAPE HATTERAS  SUNNY     80  59  48 W13G21    29.87F
$$

NCZ078-087-090-091-093-098-101-262000-
SOUTHEASTERN NORTH CAROLINA

CITY           SKY/WX    TMP DP  RH WIND       PRES   REMARKS
LUMBERTON      SUNNY     83  52  34 SW13G18   29.92F
GOLDSBORO      SUNNY     82  54  38 W16G24    29.88F
KINSTON        MOSUNNY   81  54  39 SW10G18   29.89F
KENANSVILLE    SUNNY     81  54  39 W12G20    29.90S
NEW BERN       MOSUNNY   82  57  42 W15G24    29.89F
CHERRY POINT   MOSUNNY   83  53  35 W16G25    29.89F
BEAUFORT       MOSUNNY   79  65  62 SW21      29.88F
JACKSONVILLE   SUNNY     82  55  39 W8G22     29.89F
WILMINGTON     SUNNY     83  56  39 W13G20    29.91F
$$





USA.gov is the U.S. government's official web portal to all federal, state and local government web resources and services.